Regional Weather Roundup
Issued by NWS

Home | Current Version | Previous Version | Text Only | Print | Product List | Glossary Off
Versions: 1 2 3 4 5 6 7 8 9 10 11 12 13 14 15 16 17 18 19 20 21 22 23 24 25 26 27 28 29 30 31 32 33 34 35 36 37 38 39 40 41 42 43 44 45 46 47 48 49 50

000
ASUS43 KDTX 270701
RWRMI
MICHIGAN HOURLY REGIONAL WEATHER ROUNDUP
NATIONAL WEATHER SERVICE DETROIT/PONTIAC MI
300 AM EDT WED AUG 27 2014

NOTE: "FAIR" INDICATES FEW OR NO CLOUDS BELOW 12,000 FEET WITH NO
SIGNIFICANT WEATHER AND/OR OBSTRUCTION TO VISIBILITY.

MIZ047>049-052>055-059>063-066>070-074>076-081>083-270800-
SOUTHEAST LOWER MICHIGAN

CITY           SKY/WX    TMP DP  RH WIND       PRES   REMARKS
ADRIAN         MOCLDY    70  67  90 N13       30.09F
ALMA           CLOUDY    61  59  93 CALM      30.12F
ANN ARBOR      PTCLDY    68  64  87 NW5       30.09S
BAD AXE        CLOUDY    63  58  86 NE3       30.12S
CARO           CLOUDY    65  60  86 NE3       30.10S
DETROIT CITY   CLOUDY    73  68  84 NW5       30.08R
DETROIT        CLOUDY    69  67  93 NW6       30.08S
FLINT          CLOUDY    70  65  84 NW6       30.09S
GROSSE ILE     MOCLDY    72  68  88 NW5       30.07S
HILLSDALE      CLEAR     68  68 100 CALM      30.11S
HOWELL         CLEAR     64  64  99 CALM      30.10S FOG

CITY           SKY/WX    TMP DP  RH WIND       PRES   REMARKS
JACKSON        CLEAR     64  62  93 NW3       30.11S
LAMBERTVILLE   MOCLDY    70  68  94 CALM      30.09S
LANSING        CLEAR     63  60  90 NW6       30.11S
LAPEER         CLOUDY    64  60  86 E5        30.11S
MASON          CLEAR     63  62  96 NW3       30.11S
MONROE         CLEAR     68  66  94 CALM      30.07S
MT. CLEMENS    CLOUDY    68  63  83 NE7       30.08R
PONTIAC        MOCLDY    68  65  90 NW5       30.09S
PORT HOPE        N/A     65  56  72 N7        30.10R
PORT HURON     CLOUDY    66  61  82 N6        30.10R
TRI CITIES     MOCLDY    67  60  78 N3        30.11S
TROY           CLOUDY    71  67  89 NW3       30.10S
SAGINAW HB     MOCLDY    63  63 100 CALM      30.11R
$$
MIZ043>046-050>051-056>058-064>065-071>073-077>080-270800-
SOUTHWEST LOWER MICHIGAN

CITY           SKY/WX    TMP DP  RH WIND       PRES   REMARKS
BATTLE CREEK   CLEAR     64  60  87 NW3       30.12S
BENTON HARBOR  CLEAR     60  60 100 CALM      30.12S FOG
BIG RAPIDS     CLEAR     56  56 100 CALM      30.13R
COLDWATER      CLEAR     67  65  93 NW5       30.11S
FREMONT        FAIR      55  54  97 CALM      30.12R
HOLLAND        CLEAR     60  58  92 CALM      30.12F FOG
GRAND RAPIDS   CLEAR     62  62 100 NW3       30.12F
IONIA          FAIR      62  60  94 N5        30.11F
KALAMAZOO      CLEAR     63  60  90 CALM      30.12S
LUDINGTON      MOCLDY    55  54  97 CALM      30.12S
MARSHALL       CLEAR     63  62  96 CALM      30.11S
MOUNT PLEASANT FOG       57  56  95 CALM      30.11S VSB 1
MUSKEGON       CLEAR     61  57  87 E3        30.12S
SOUTH HAVEN    CLEAR     60  60  98 CALM      30.11F
$$
MIZ016>042-270800-
NORTHERN LOWER MICHIGAN

CITY           SKY/WX    TMP DP  RH WIND       PRES   REMARKS
ALPENA         CLEAR     52  50  93 CALM      30.12S
BEAVER ISLAND  PTCLDY    58  51  77 CALM      30.13S
BELLAIRE       PTCLDY    57  55  91 CALM      30.13R
CADILLAC       PTCLDY    51  50  96 NW3       30.13R
CHARLEVOIX     CLOUDY    60  53  76 NE5       30.17R
FRANKFORT      PTCLDY    62  56  80 NE6       30.13S
GAYLORD        CLOUDY    56  52  86 CALM      30.13S
GRAYLING       MOCLDY    54  54 100 CALM      30.14R
HARBOR SPRINGS CLOUDY    56  52  89 CALM      30.14R
HOUGHTON LAKE  PTCLDY    55  54  96 N3        30.13S
MANISTEE       PTCLDY    54  50  87 NE6       30.13R
OSCODA         CLEAR     55  53  91 N3        30.11S
PELLSTON       CLOUDY    51  50  96 CALM      30.13S
TRAVERSE CITY  MOCLDY    63  55  75 NE8       30.12R
$$
MIZ007>008-015-270800-
EASTERN UPPER MICHIGAN

CITY           SKY/WX    TMP DP  RH WIND       PRES   REMARKS
KINROSS        PTCLDY    50  50 100 W3        30.11R
MACKINAC ISLAN PTCLDY    54  50  88 W5        30.12R
NEWBERRY       PTCLDY    49  47  93 W9        30.11F
S. S. MARIE    PTCLDY    50  47  89 CALM      30.09F
$$
MIZ004>006-011>014-085-270800-
CENTRAL UPPER MICHIGAN

CITY           SKY/WX    TMP DP  RH WIND       PRES   REMARKS
MANISTIQUE     PTCLDY    47  46  97 CALM      30.12S
ESCANABA       PTCLDY    52  46  82 CALM      30.14S
MENOMINEE      CLOUDY    57  48  72 N3        30.14S
SAWYER-GWINN   PTCLDY    50  46  86 CALM      30.15R
$$
MIZ001>003-009>011-084-270800-
WESTERN UPPER MICHIGAN

CITY           SKY/WX    TMP DP  RH WIND       PRES   REMARKS
IRON MOUNTAIN  MOCLDY    53  50  89 CALM      30.15S
HOUGHTON       MOCLDY    56  50  80 W3        30.14S
COPPER HARBOR    N/A     58  47  66 VRB3      30.12F
$$

ABBREVIATIONS USED IN REMARKS
   TC - TEMPERATURE IN CELSIUS
  WCI - WIND CHILL INDEX
   HX - HEAT INDEX
  VSB - VISIBILITY




USA.gov is the U.S. government's official web portal to all federal, state and local government web resources and services.